Starlink 34129

operational
NORAD ID: 64138 Int'l Des: 2025-111 Owner: SPXS Country: US Constellation: starlink
LEOCIRCULAR

关于 Starlink 34129

正在加载描述...

实时位置

正在加载3D地球...

即将过境

高度历史

Altitude vs Time

uPlot chart will show altitude changes over time

两行轨道根数

1 64138U 25111R 25305.74631036 .00040280 00000-0 14647-2 0 9995
2 64138 43.0015 80.6394 0001650 268.8835 91.1827 15.27592667 25947
Epoch: Nov 1, 2025 • Age: 47 hours

当前状态

高度 492.0 km
速度 7.62 km/s
星下点 -36.35°S, 83.85°E
发射日期 May 24, 2025
运行时间 0.4 years
类型 internet

技术详情

分类 Payload
质量 575.00 kg
干质量 530.00 kg
总质量 575.00 kg
长度 0.30 m
直径 4.10 m
跨度 29.00 m
形状 Box + pan
制造商 SPXS
平台类型 Starlink V2MO
阶段状态 In Orbit
所有者/国家 SPXS/US

大型星座

Loading constellations...